Retour au catalogue

STARLINK-35928

ActifCommunicationsVLEO
NORAD 66528·PAYLOAD·🇺🇸 United States

Lancé Nov 19, 2025 depuis Cape Canaveral Space Force Station

Loading…

Prochains Passages (prochaines 24 heures)

TLE

FraisSource: CelesTrak SupGP

Époque: Sep 15, 2026, 03:57 UTC

1 66528C 25265N   26258.16506944 -.00008693  00000+0 -31489-3 0  2588
2 66528  42.9999 287.7168 0001401 263.4784  76.8331 15.27581319    11

Suivez STARLINK-35928 en temps réel avec AllMySat

Download on the App Store